Flag Weather past 2 weeks in Hartford, Connecticut, U.S.A.

Now
34 °F

Mostly cloudy.


Feels Like: 30 °F
Forecast: 29 / 35 °F
Wind: 5 mph from North

Location: Hartford-Brainard Airport

Current Time: Nov 27, 2014 at 3:19:19 AM

Latest Report: Nov 27, 2014 at 2:53 AM


Visibility: 10 mi

Pressure: 29.84 "Hg

Humidity: 88%

Dew point: 31 °F

Location of HartfordLocation

Historic Weather in Hartford — Graph

°F

Hartford temperature yesterday

Maximum temperature yesterday: 46 °F (at 1:53 AM)
Minimum temperature yesterday: 32 °F (at 11:53 AM)
Average temperature yesterday: 37 °F

Past Weeks' High & Low Weather Summary

 TemperatureHumidityPressure
High67 °F (Nov 24, 11:53 PM)100% (Nov 12, 1:53 AM)30.47 "Hg (Nov 12, 1:53 AM)
Low19 °F (Nov 22, 4:53 AM)25% (Nov 19, 3:53 PM)29.48 "Hg (Nov 17, 8:53 PM)
Average40 °F61%30.03 "Hg
* Reported Nov 12 1:53 AM — Nov 27 1:53 AM, Hartford, Weather by CustomWeather, © 2014

Note: Actual official high and low records may vary slightly from our data, if they occured in-between our weather recording intervals... More about our weather records

Advertising

Hartford weather history for previous 24 hours

 ConditionsComfort  
Time TempWeatherWind HumidityBarometerVisibility
1:53 AM
Nov 27
34 °FOvercast.7 mph88%29.82 "Hg10 mi
1:01 AM33 °FLight snow. Fog.8 mph96%29.80 "Hg3 mi
11:53 PM
Nov 26
34 °FLight snow. Mostly cloudy.10 mph88%29.78 "Hg7 mi
10:53 PM34 °FLight snow. Fog.13 mph88%29.75 "Hg2 mi
9:53 PM34 °FLight snow. Fog.15 mph88%29.75 "Hg2 mi
8:53 PM34 °FRain. Fog.15 mph88%29.75 "Hg2 mi
7:53 PM33 °FLight snow. Fog.15 mph92%29.76 "Hg2 mi
6:53 PM34 °FLight rain. Fog.14 mph88%29.78 "Hg5 mi
5:53 PM34 °FRain. Fog.13 mph92%29.80 "Hg3 mi
4:53 PM34 °FRain. Fog.16 mph92%29.85 "Hg4 mi
4:01 PM33 °FLight rain. Fog.15 mph92%29.89 "Hg3 mi
2:53 PM33 °FLight snow. Fog.12 mph92%29.95 "Hg1 mi
1:53 PM32 °FLight snow. Fog.8 mph96%30.04 "Hg1 mi
12:53 PM33 °FLight snow. Fog.9 mph92%30.01 "Hg1 mi
11:53 AM32 °FSnow. Fog.8 mph96%30.06 "Hg1 mi
11:00 AM33 °FLight snow. Fog.6 mph96%30.15 "Hg1 mi
10:03 AM35 °FRain. Fog.6 mph88%30.17 "Hg2 mi
9:53 AM35 °FRain. Fog.7 mph92%30.15 "Hg3 mi
8:53 AM38 °FLight rain. Overcast.5 mph79%30.17 "Hg6 mi
7:53 AM40 °FLight rain. Overcast.6 mph73%30.18 "Hg10 mi
6:53 AM42 °FMostly cloudy.8 mph57%30.16 "Hg10 mi
5:53 AM43 °FOvercast.9 mph56%30.17 "Hg10 mi
4:53 AM43 °FPassing clouds.5 mph58%30.18 "Hg10 mi
3:53 AM43 °FPassing clouds.6 mph56%30.21 "Hg10 mi
Weather by CustomWeather, © 2014

See weather overviewHow to use our weather pages